Theta_e
326 327 327 328 327 327 329 331 333 331 328 333 335 332 335 337 334 331 332 331 332 331 329 330 331 334 333 332 331 331 334 334 337 340 340 339 336 336 338 338 339 340 341 343 339 336 339 340 341 342 342 343 343 343 343 343 343 342 342 341 341 340 340 339 339 339 339 339 339 339 339 339 339 339 339 339 340 340 339 340 340 340 340 340 340 340 338 337 338 338 338 339 340 340 340 339 339
326 327 327 327 326 327 330 332 336 335 329 332 335 332 335 336 333 333 333 332 332 330 329 329 329 330 330 330 330 330 332 333 335 336 337 336 335 336 337 337 338 339 340 342 340 338 339 338 339 341 341 342 342 342 343 343 343 342 342 342 342 341 340 340 340 339 339 339 338 338 338 338 338 338 338 338 338 338 338 338 338 338 339 339 339 339 339 338 338 338 338 339 339 340 340 340 340
325 326 326 326 328 328 329 330 336 337 330 335 338 334 335 337 335 333 333 331 328 327 327 327 327 328 330 330 329 331 333 332 334 335 335 334 334 335 336 337 338 339 339 341 340 340 340 338 337 338 340 341 341 342 342 342 342 342 342 342 341 341 341 341 341 340 340 339 339 339 338 338 338 337 337 337 337 337 337 337 337 337 338 338 339 339 339 339 338 339 339 339 339 339 340 340 340
324 325 325 327 332 331 333 333 333 336 334 338 339 334 333 337 337 333 331 330 326 326 327 326 327 327 328 330 328 330 331 329 331 334 333 332 333 335 336 337 338 338 338 340 340 340 340 339 337 335 338 339 340 341 341 341 341 341 341 340 340 340 341 341 341 341 341 340 340 340 339 339 338 338 338 337 337 337 336 336 336 336 336 337 338 338 338 339 339 339 339 338 339 339 340 340 340
323 324 325 326 333 333 335 336 332 334 337 340 339 333 332 334 334 331 329 329 327 327 327 326 326 325 325 327 326 327 326 328 330 330 332 332 333 335 335 336 337 338 339 340 341 340 339 338 335 333 336 337 338 339 340 340 340 340 340 340 339 339 339 340 340 340 340 340 340 340 340 339 339 338 338 338 337 337 337 336 336 336 336 336 336 336 336 337 337 337 338 338 338 339 339 339 340
323 324 324 323 330 330 332 337 333 333 337 338 337 332 332 333 332 331 327 326 327 326 327 325 325 324 324 324 324 324 323 327 328 328 331 332 333 334 334 335 336 338 339 339 341 341 340 337 333 333 335 336 337 338 339 339 339 339 339 339 338 338 338 338 338 338 339 339 339 339 339 339 339 338 338 338 337 337 337 336 335 336 335 336 335 336 336 335 336 335 336 337 338 338 338 339 339
323 324 327 325 327 328 330 334 332 335 336 333 333 329 329 329 330 331 327 328 327 326 327 326 324 324 325 324 323 322 323 325 326 328 331 332 333 334 334 334 335 337 338 339 339 338 338 336 332 332 334 336 336 337 338 338 338 338 338 338 337 337 337 337 337 337 337 337 337 338 338 338 338 338 338 337 337 337 337 336 335 334 334 335 335 335 335 335 335 334 335 335 336 337 337 338 338
322 325 330 331 329 328 330 331 332 336 335 332 330 326 326 324 325 327 325 327 327 325 326 326 325 325 326 325 323 322 323 324 324 327 330 332 333 333 333 334 334 335 337 338 338 335 334 333 331 331 333 335 336 337 337 337 337 337 337 337 337 337 337 336 336 336 336 336 337 337 337 337 337 337 337 337 337 336 336 335 335 334 333 334 334 334 334 334 333 333 333 333 334 335 336 337 338
322 324 328 330 330 331 330 329 332 335 333 332 328 324 325 324 323 324 324 324 324 323 323 324 326 325 326 325 324 323 323 324 325 327 330 331 333 332 330 331 334 334 335 338 338 334 331 333 332 332 332 333 334 335 335 336 336 336 336 337 337 336 336 336 336 336 336 336 336 336 336 336 337 337 336 336 336 336 335 335 335 334 333 333 333 333 333 333 332 332 332 332 332 333 335 336 337
323 324 325 328 331 332 331 328 332 335 334 331 327 324 324 323 323 323 324 322 322 323 321 322 323 323 325 325 324 324 323 324 324 326 329 330 331 332 331 331 333 333 331 334 337 333 330 333 333 332 333 333 333 333 333 334 334 335 335 335 336 336 336 336 336 336 337 337 337 336 336 336 336 336 335 335 335 335 335 335 335 334 334 334 333 333 332 331 331 331 331 331 332 332 333 334 335
324 325 326 330 331 333 333 329 331 334 333 330 326 325 323 323 323 322 323 322 321 322 321 321 321 321 323 324 324 324 323 324 323 325 328 328 328 330 332 331 332 333 331 332 334 331 329 332 333 334 334 333 333 333 333 333 333 334 334 334 334 335 335 336 337 337 337 337 337 337 336 336 336 336 335 335 335 335 335 334 335 334 334 334 333 331 330 329 328 328 328 329 329 330 331 332 333
326 326 327 331 332 332 332 330 331 333 334 330 325 324 322 323 323 324 325 324 323 324 323 322 321 320 322 324 323 323 323 324 325 325 327 328 327 327 329 331 332 332 333 333 333 332 331 330 331 334 335 334 335 334 334 334 333 333 333 333 333 334 334 335 336 335 335 336 336 336 336 336 336 336 336 336 335 335 335 334 334 334 334 334 333 330 329 328 327 327 326 326 327 327 328 329 331
326 328 328 331 331 330 329 329 330 333 333 328 324 324 323 323 322 325 326 326 326 325 323 321 320 319 320 323 323 323 322 323 325 325 326 327 327 327 327 329 330 331 332 334 334 335 335 334 333 332 334 334 333 333 334 333 333 333 333 333 333 333 333 333 334 333 333 333 335 335 335 334 335 335 335 335 335 335 334 333 333 334 334 334 333 331 330 329 328 327 326 325 325 325 326 328 329
326 327 327 330 331 330 329 329 327 330 331 326 324 325 323 323 322 322 324 326 325 323 321 320 319 319 320 322 323 322 321 321 322 323 325 327 327 326 326 327 327 328 329 330 332 334 335 336 336 334 334 335 334 332 334 333 328 327 327 328 328 329 330 331 331 332 332 332 332 333 333 333 333 333 333 333 333 333 332 332 333 333 334 334 333 332 331 330 329 329 328 327 326 325 325 326 327
325 325 328 334 336 334 331 329 327 329 329 324 323 322 322 322 321 322 323 323 322 320 321 320 318 320 322 322 322 321 320 321 321 322 323 324 325 325 326 327 326 324 326 326 324 327 328 330 333 332 332 333 333 332 333 331 323 319 320 320 321 322 323 324 325 327 328 329 329 329 331 332 333 332 333 332 331 331 331 332 333 333 334 334 334 333 332 331 329 329 329 329 329 328 326 325 324
324 324 328 333 335 335 333 329 328 330 327 323 322 321 322 321 320 322 321 320 321 320 320 320 319 320 321 321 321 321 320 321 320 321 322 321 322 323 326 327 326 324 324 324 322 322 322 322 325 327 326 327 328 327 328 327 319 317 317 317 318 317 318 318 319 320 321 324 325 326 329 331 332 331 332 331 331 331 331 332 333 333 333 333 333 332 332 331 330 329 329 330 330 330 329 327 324
323 325 328 330 332 333 333 329 327 327 325 323 322 321 322 322 321 322 321 320 320 320 320 320 320 320 320 321 321 320 320 320 321 321 321 321 320 321 323 323 325 324 323 323 322 321 320 319 320 321 322 321 321 321 324 325 321 319 319 319 320 319 319 317 317 317 318 321 324 326 328 329 329 328 330 332 332 332 332 333 333 332 332 332 332 332 332 331 331 330 330 330 330 330 330 330 328
324 326 327 328 330 330 328 326 324 324 324 323 322 322 321 322 321 321 321 320 320 321 321 320 321 320 320 321 321 320 320 320 321 321 321 321 321 321 321 320 321 321 322 322 321 319 318 316 316 317 317 317 317 318 320 321 322 323 325 326 327 326 326 324 323 321 320 322 327 329 329 329 329 328 331 333 333 333 333 332 332 331 331 331 331 331 331 331 331 330 330 330 330 330 330 330 329
324 326 327 326 325 325 323 323 323 323 323 322 322 322 322 321 320 321 321 321 322 322 321 321 321 321 321 321 321 320 321 321 321 321 321 321 321 321 320 320 320 318 319 319 317 315 314 313 313 313 314 314 315 315 316 317 320 324 327 328 328 329 330 330 329 329 328 329 331 331 329 330 331 331 332 333 333 332 332 332 332 332 332 331 331 331 330 330 330 330 330 330 330 330 330 330 329
324 325 326 326 323 323 322 323 323 323 323 323 322 322 322 321 320 321 322 322 322 322 321 321 322 322 322 322 322 321 322 322 322 321 321 321 321 321 320 320 319 318 317 317 314 312 311 310 310 311 312 313 313 314 314 315 318 320 322 323 325 329 330 331 331 331 332 332 332 330 329 330 331 332 332 332 332 332 332 332 332 332 331 331 330 330 330 330 330 330 330 330 330 330 331 330 329
324 324 325 324 323 323 322 323 323 323 323 323 322 322 322 321 321 322 322 323 323 322 321 321 322 322 321 322 321 321 322 322 321 321 320 321 321 320 319 317 316 315 315 314 312 310 309 308 308 308 310 310 311 313 312 313 315 317 320 322 324 327 328 329 330 330 331 331 331 330 330 330 330 329 329 329 329 329 330 331 331 330 330 330 330 331 331 330 330 330 329 330 330 331 330 330 330
323 323 324 322 322 322 322 322 323 322 322 322 322 322 321 320 322 322 322 324 324 322 322 322 322 322 321 321 320 321 321 320 320 320 319 320 319 317 315 314 312 312 311 311 309 308 307 306 306 307 307 308 309 310 312 314 317 318 320 322 323 324 325 326 327 328 328 329 330 330 329 328 329 329 328 328 328 328 329 330 330 330 329 329 330 330 330 330 330 330 330 330 330 330 330 330 330
324 324 322 321 321 321 321 321 323 322 321 321 321 321 321 322 322 322 322 322 322 322 323 323 322 321 320 320 320 321 320 319 318 318 318 317 314 312 312 310 309 309 307 307 307 306 305 305 305 305 306 306 307 309 312 314 316 317 319 320 322 323 325 325 326 327 326 327 328 328 328 328 329 328 328 329 329 330 329 329 329 329 329 329 329 329 329 329 329 329 329 328 328 329 329 329 328
325 324 322 321 321 321 321 320 321 321 321 321 321 322 322 323 324 322 322 321 321 322 321 321 320 319 320 320 319 320 319 317 316 315 315 313 311 310 309 307 307 306 305 305 305 304 303 303 304 304 305 305 306 308 311 312 314 316 317 318 320 321 323 324 325 325 325 326 326 327 327 328 328 328 328 328 328 328 328 328 328 328 328 328 328 327 327 327 327 327 327 327 327 328 328 328 328
323 323 322 321 321 322 321 321 321 321 322 322 322 322 322 323 322 321 320 319 320 320 318 318 318 317 317 317 317 317 315 313 311 311 312 311 309 307 305 305 305 304 303 303 303 302 301 302 302 303 304 304 306 307 309 311 312 312 314 317 318 320 321 322 323 324 324 325 326 326 326 326 327 327 327 327 326 326 326 327 327 327 327 326 326 325 325 325 325 325 326 326 326 326 327 327 328
321 321 321 321 321 321 321 321 321 321 321 321 321 321 320 320 320 319 319 318 318 317 316 315 315 315 315 314 314 313 311 310 309 309 309 308 305 304 302 302 303 302 301 301 301 300 300 301 301 302 303 303 305 307 308 311 312 311 313 316 316 316 317 318 320 320 321 322 323 324 324 324 325 325 325 325 325 325 325 325 325 325 325 324 324 324 324 324 324 324 325 325 325 326 326 327 327
320 320 321 319 320 320 320 320 319 319 319 319 320 319 318 318 318 318 318 317 317 315 313 311 311 312 312 312 311 311 310 309 307 306 305 304 302 301 300 300 301 301 300 300 299 299 299 299 300 301 301 303 304 306 308 311 311 310 311 313 312 311 313 314 316 316 317 319 320 321 321 322 323 323 323 323 324 324 323 323 323 323 323 323 323 323 323 323 324 324 324 325 325 325 325 325 325
319 320 320 319 318 318 319 319 318 319 318 317 317 317 316 315 316 317 316 314 313 311 309 309 309 310 310 310 311 310 309 306 304 303 302 301 300 299 298 298 299 299 298 298 298 298 299 299 300 300 300 302 303 305 307 309 310 309 308 309 308 308 309 312 314 315 316 317 318 319 319 319 320 320 320 320 321 321 321 321 321 321 322 322 322 322 322 322 322 323 323 323 324 324 323 322 322
318 319 319 318 317 317 317 318 318 319 318 316 314 314 313 314 315 315 313 310 309 308 308 308 309 309 310 310 310 308 305 303 302 301 300 299 299 298 297 297 297 297 297 297 297 297 298 298 299 299 299 301 302 304 306 308 309 307 306 306 306 305 306 308 311 312 313 314 315 316 317 317 317 317 318 318 317 317 318 318 318 318 319 320 321 320 320 321 320 320 322 322 322 322 322 321 321
316 316 317 318 318 318 316 317 318 317 315 313 312 313 312 313 314 312 311 309 308 309 308 309 308 308 309 309 306 303 301 301 300 299 298 298 297 297 296 295 295 295 295 295 296 296 297 297 298 298 299 300 301 302 304 307 308 307 305 304 304 304 305 305 307 309 310 311 311 312 313 314 314 314 315 315 315 315 315 315 315 314 315 316 317 318 317 317 317 319 321 321 321 321 320 320 320
316 316 317 318 319 319 316 317 316 314 313 311 312 312 312 312 312 310 309 309 309 309 309 309 309 309 309 306 302 300 300 299 298 297 297 296 296 295 295 294 294 294 295 295 295 295 296 297 297 297 298 298 299 301 303 305 306 306 305 304 303 303 303 304 305 307 308 308 309 310 310 311 312 312 312 313 313 313 313 313 313 313 312 313 313 314 314 314 315 318 319 319 319 319 319 319 319
317 319 320 318 318 319 317 316 314 313 312 310 311 312 311 311 311 310 309 309 309 309 309 309 309 309 308 304 301 300 298 297 297 296 295 295 294 294 294 293 293 293 294 294 294 295 295 296 296 296 296 296 297 299 301 303 304 305 305 304 303 302 303 304 304 305 306 306 307 308 308 309 309 310 310 311 311 312 311 310 311 311 311 311 311 312 314 314 314 316 318 318 318 318 318 318 318
318 320 321 319 318 318 316 314 312 311 312 310 310 311 311 310 310 310 309 310 309 309 309 309 309 309 306 303 302 299 297 296 295 295 295 294 294 293 293 293 293 293 293 294 294 294 295 295 295 295 295 295 296 297 299 300 301 303 304 303 302 300 301 302 303 303 304 304 305 305 306 306 307 307 308 308 309 309 309 308 308 309 310 309 310 311 313 314 315 316 317 317 317 317 317 317 317
319 320 321 320 318 317 315 313 311 310 311 311 311 311 311 310 310 310 309 309 309 309 309 309 309 308 304 303 301 298 296 295 294 294 294 293 293 293 292 292 292 292 293 293 293 294 294 294 294 294 294 294 296 296 296 298 299 300 301 301 300 299 299 300 301 301 302 302 303 303 303 304 304 305 305 306 306 306 306 306 305 306 307 307 308 309 311 312 313 314 315 315 315 316 316 316 316
317 319 321 319 317 315 314 313 311 310 312 312 312 312 311 310 310 310 310 309 309 309 309 309 309 307 304 302 299 297 295 294 294 293 293 293 292 292 292 292 291 292 292 292 293 293 293 293 293 293 292 293 294 295 295 296 297 298 298 299 298 298 298 299 299 299 299 300 300 300 301 301 302 303 303 303 302 303 303 303 302 302 302 303 305 308 309 309 310 310 311 312 313 313 313 314 314
316 318 319 319 317 314 313 312 311 311 313 313 313 312 310 310 310 309 310 310 309 309 309 309 308 306 303 300 297 296 294 293 293 293 292 292 292 291 291 291 291 291 291 291 292 291 292 292 291 291 291 290 291 293 293 294 295 296 297 297 297 297 297 298 298 298 297 298 298 298 298 299 299 300 300 300 299 299 299 299 299 299 300 300 302 305 306 306 307 307 307 307 308 310 311 311 312
313 316 317 317 316 314 313 313 312 313 314 312 311 310 309 309 309 309 309 309 309 309 309 308 306 305 302 299 297 295 294 293 293 292 292 291 291 291 290 290 290 290 290 290 290 290 290 290 290 289 289 288 289 290 290 291 293 294 295 296 296 295 295 296 296 296 295 295 295 295 296 296 296 297 297 297 297 296 297 297 297 297 298 298 299 301 303 303 304 304 304 304 305 306 308 310 311
312 314 316 316 315 314 312 313 313 312 312 312 310 310 309 309 308 308 309 308 308 308 307 306 305 304 301 298 296 295 294 293 292 292 291 290 290 290 290 289 289 289 289 288 289 289 288 288 289 288 287 286 286 287 288 289 290 291 293 295 295 294 293 292 292 292 292 292 293 293 293 293 293 294 294 295 295 295 294 294 295 295 295 296 297 299 300 301 301 301 301 301 302 303 305 307 308
312 314 315 316 315 314 312 313 313 311 311 311 310 310 309 309 309 309 308 307 307 307 305 303 302 301 300 298 297 295 294 292 292 291 290 289 289 288 288 288 288 287 287 287 287 287 286 286 286 286 285 284 284 286 287 286 288 289 290 292 293 292 291 290 289 289 289 290 290 289 289 290 290 290 290 291 292 292 291 291 292 293 293 293 294 296 297 298 298 298 298 298 299 301 302 304 305
313 313 314 315 314 314 313 313 312 311 311 311 310 311 310 309 309 308 307 307 306 305 302 300 299 298 297 296 295 294 292 291 290 289 289 288 287 287 287 287 286 286 286 286 285 285 284 284 284 284 283 282 282 285 286 286 286 289 289 289 290 290 289 289 289 288 288 288 287 287 286 287 287 287 287 288 288 288 288 289 290 290 291 291 292 293 293 294 295 295 295 296 296 298 299 300 301
313 313 314 314 313 312 312 311 310 310 311 312 311 311 310 309 309 307 306 306 305 303 301 299 298 296 295 294 293 292 290 290 288 287 287 287 286 286 285 285 285 285 285 284 284 283 283 282 282 282 281 280 280 282 284 285 285 287 287 286 287 288 287 286 286 285 285 284 284 284 284 284 285 285 286 286 286 286 286 286 287 288 288 289 290 290 291 291 292 293 293 293 294 295 296 297 298
312 313 313 312 312 311 311 310 311 310 310 312 311 309 310 309 308 307 306 306 305 303 300 299 297 296 294 293 291 290 289 288 287 286 286 286 285 285 284 284 284 284 284 283 283 282 281 280 280 280 279 278 278 279 281 282 281 281 282 282 282 283 283 282 281 281 281 280 280 280 281 282 283 284 284 284 284 285 284 284 285 285 285 286 287 287 288 289 289 290 290 291 292 293 294 295 295
312 313 313 311 311 311 310 310 311 310 309 311 311 310 310 309 307 308 307 305 304 301 299 298 296 294 292 291 290 289 288 287 286 286 285 285 284 284 283 283 282 282 282 282 281 280 280 279 278 278 277 277 278 278 279 279 278 277 278 278 279 278 279 279 278 278 278 277 278 278 279 280 280 281 281 281 282 283 283 283 283 283 283 284 284 285 285 286 287 287 288 289 289 291 292 291 292
312 313 311 310 310 310 311 311 311 310 309 310 310 310 311 310 308 308 307 305 304 301 299 297 294 292 291 290 289 288 287 287 286 285 284 284 283 282 282 281 281 281 281 280 280 279 278 277 277 276 276 276 276 277 278 278 277 276 275 275 276 276 276 276 276 276 276 275 276 277 277 277 277 278 279 279 280 281 281 281 281 281 281 281 282 283 283 284 285 285 286 287 287 289 289 289 289
311 312 310 310 310 309 310 310 309 309 309 309 310 311 312 311 308 307 307 305 303 301 298 296 293 292 291 289 288 288 287 286 285 284 283 283 282 281 281 280 280 279 279 279 278 277 277 276 275 274 274 274 274 275 276 277 277 276 275 274 274 274 274 274 275 275 275 275 275 276 276 276 276 277 277 277 278 278 279 279 279 279 279 279 280 281 281 283 284 284 284 285 285 286 287 287 287
310 310 310 309 310 310 309 310 309 309 310 309 310 310 311 311 307 306 307 306 304 300 297 295 293 291 290 289 288 287 286 285 284 283 283 282 281 280 280 279 279 278 278 278 277 276 275 274 274 273 273 272 272 272 273 274 274 274 273 272 272 272 272 273 273 273 273 273 274 275 275 276 276 276 276 276 277 277 277 277 277 277 277 277 278 279 279 280 282 282 282 283 283 284 285 285 285
309 309 309 309 310 310 309 309 308 309 310 309 309 309 310 310 307 305 305 305 303 300 296 294 292 290 289 288 287 286 285 284 283 282 282 281 280 280 279 278 278 277 276 276 276 275 274 273 273 272 272 271 271 271 271 271 271 271 271 271 271 271 271 271 271 271 271 271 271 272 272 273 274 274 275 275 275 276 276 276 276 276 276 276 276 277 277 278 279 279 280 281 281 282 283 283 283
308 308 308 309 310 309 309 309 308 310 312 309 308 309 309 309 306 302 300 300 300 298 296 293 291 289 288 287 286 285 284 283 282 281 281 280 280 279 278 278 277 276 276 275 274 274 273 273 272 271 271 271 270 270 270 270 270 270 269 269 270 270 270 270 270 270 270 270 270 270 270 270 271 272 273 273 274 274 275 275 276 276 275 275 275 276 275 276 277 277 278 279 279 280 280 281 281
308 308 308 310 311 311 311 311 310 311 311 306 306 308 308 306 302 299 297 296 296 296 294 292 290 288 287 286 285 284 283 282 281 280 280 280 279 279 278 277 276 275 275 274 274 273 273 272 271 271 271 270 270 270 270 269 269 269 269 269 269 269 269 269 269 269 269 268 269 268 268 269 269 269 270 271 271 272 273 273 273 274 273 274 274 275 275 275 275 275 276 277 277 277 278 279 279
308 308 308 310 310 310 311 311 310 311 308 305 305 306 308 305 299 297 296 294 294 293 292 290 289 287 286 285 284 283 282 281 280 280 280 279 279 278 277 277 276 275 274 273 273 272 272 271 271 271 270 270 269 269 269 269 269 269 269 268 268 268 268 268 268 268 267 268 268 268 268 268 268 268 268 269 270 271 272 271 272 272 272 272 273 274 274 274 274 274 274 275 276 275 276 277 277
308 308 307 308 308 308 309 309 309 310 308 305 305 306 308 306 300 295 294 293 292 291 290 289 288 287 286 284 283 282 281 281 280 280 279 279 278 278 277 276 275 274 274 273 272 272 271 271 270 270 270 269 269 269 269 269 268 268 269 269 268 268 268 267 267 267 267 267 267 267 267 267 267 267 268 269 269 270 271 271 271 271 271 271 271 272 273 273 274 273 273 273 274 274 274 275 276
307 307 307 307 308 307 308 308 307 308 308 306 306 305 303 300 297 294 293 291 290 290 289 288 287 286 285 283 282 282 281 280 280 279 279 278 278 277 276 276 275 274 273 273 272 271 271 271 270 270 269 269 269 269 269 268 268 268 268 268 268 268 268 267 267 267 267 267 267 267 267 267 267 267 268 269 269 270 270 271 271 271 271 271 271 271 271 271 272 272 272 272 273 272 272 273 274
306 306 306 306 307 307 307 308 305 305 307 305 305 304 299 296 296 294 292 290 289 288 287 286 286 285 283 283 282 281 280 280 279 279 279 278 277 276 276 275 274 273 273 272 272 271 271 270 270 269 269 269 269 269 268 268 268 268 268 268 268 268 267 267 267 267 267 267 267 267 267 267 267 267 268 268 269 269 270 270 270 270 270 270 270 270 270 270 270 270 270 270 271 271 271 271 272
305 305 305 305 307 306 306 306 305 306 306 304 303 304 301 300 299 294 292 290 288 287 286 285 284 284 283 282 281 280 280 279 279 279 278 277 277 276 275 275 274 273 272 272 271 271 270 270 270 269 269 269 268 268 268 268 268 267 267 267 267 267 267 267 266 266 266 267 267 267 267 267 267 267 267 268 268 269 269 269 269 270 270 270 270 270 270 270 269 269 269 269 269 270 270 271 271
305 305 305 305 307 307 305 306 306 306 306 304 304 304 303 302 299 294 292 291 288 286 285 284 283 282 282 281 280 280 280 279 279 278 278 277 276 275 275 274 274 273 272 272 271 271 270 270 270 269 269 268 268 268 267 267 267 267 266 266 266 266 266 266 266 266 266 266 266 266 266 266 266 266 267 267 268 268 268 269 269 269 269 270 270 270 270 269 269 269 269 268 268 268 268 269 269
305 304 305 305 305 305 305 305 305 305 305 305 304 303 302 298 294 292 290 289 288 286 284 283 282 281 281 280 280 279 279 278 278 277 277 276 275 275 274 274 273 273 272 271 271 271 270 270 269 269 268 268 267 267 267 267 267 267 267 266 266 266 266 266 265 266 266 265 265 265 265 266 266 266 266 267 267 267 267 268 268 268 269 269 269 269 269 269 268 268 268 268 268 267 267 267 267
305 304 305 305 304 305 306 305 305 304 304 304 302 302 300 293 290 290 287 286 286 285 284 282 281 281 280 280 279 278 278 277 277 277 276 276 275 274 274 273 273 272 272 271 271 270 270 269 269 268 268 267 267 266 266 266 266 266 266 266 266 266 265 265 265 265 265 265 265 265 265 265 266 265 266 266 266 266 267 267 268 268 268 268 268 269 269 269 268 268 268 267 267 267 267 267 266
303 303 302 302 302 303 304 304 304 304 304 303 302 303 300 291 287 287 285 285 285 284 283 282 281 280 279 279 278 278 277 277 276 276 275 275 275 274 274 273 273 272 272 271 271 270 270 269 269 268 267 267 266 266 266 266 266 266 265 266 265 265 265 265 265 265 265 265 265 265 265 265 265 265 265 265 265 266 266 266 267 267 267 268 268 268 268 268 268 267 267 267 267 267 266 266 266
Wind_Speed
3 5 4 3 2 1 1 1 0 1 1 2 4 4 1 2 4 1 6 5 2 5 4 3 4 2 2 1 1 3 3 3 2 1 1 4 5 8 7 8 8 8 10 7 5 8 10 9 11 9 8 6 5 4 3 3 2 2 1 1 1 1 3 3 4 4 4 4 5 6 7 7 7 8 8 9 9 10 10 10 10 10 10 10 9 8 8 8 8 8 9 9 9 9 9 9 10
1 4 4 3 4 3 2 1 1 1 2 3 4 2 3 0 2 3 5 6 4 4 4 3 3 2 2 1 0 1 4 6 5 4 3 9 8 10 9 8 8 9 10 8 7 8 6 6 8 9 8 6 5 4 3 2 2 1 1 1 1 2 3 4 4 4 4 5 5 6 6 7 7 8 9 9 11 11 12 13 12 12 12 11 11 10 10 10 10 10 10 10 10 10 10 10 10
2 4 5 2 3 4 2 2 2 3 4 4 3 2 4 1 2 1 6 7 7 5 2 1 1 2 1 2 2 2 4 5 7 6 4 6 6 8 8 8 8 9 9 8 8 7 4 4 4 7 9 6 5 3 2 2 1 2 2 2 2 3 4 4 5 5 5 5 6 6 6 6 7 8 8 9 10 11 12 12 13 13 13 13 12 12 11 11 11 12 12 11 11 11 12 11 11
5 5 6 3 2 3 1 2 3 3 5 3 1 1 2 1 4 1 8 6 5 3 1 1 1 1 3 2 0 3 4 4 10 7 4 8 7 6 7 7 7 9 9 9 8 5 4 3 3 4 8 7 6 4 2 2 2 2 3 3 4 5 5 5 5 6 6 6 7 7 6 7 7 8 9 9 10 11 11 11 12 12 13 13 13 13 12 12 13 13 13 13 12 12 12 11 11
5 4 5 6 1 1 1 1 3 3 3 1 1 1 2 1 6 2 8 5 3 3 0 0 1 1 2 2 3 2 1 0 11 11 6 8 7 6 7 8 8 8 9 9 8 6 5 2 2 3 6 6 6 4 3 2 3 3 3 4 5 6 6 7 7 7 8 8 8 8 8 8 9 9 10 10 10 10 11 11 11 11 12 13 14 15 14 14 14 14 14 14 14 13 13 12 12
5 5 5 7 3 3 2 2 4 3 1 3 2 2 4 4 3 3 6 9 6 3 0 1 2 1 1 5 6 5 4 1 6 9 6 6 7 7 6 7 9 9 9 8 6 5 4 1 1 5 6 5 5 4 3 2 3 4 4 5 5 6 7 7 8 8 9 9 9 9 9 10 10 10 11 11 11 10 11 11 11 11 12 12 13 14 15 16 16 16 16 16 15 15 15 14 13
4 5 2 5 4 4 3 4 4 2 1 2 3 4 6 7 4 4 5 7 4 3 2 2 2 2 2 4 6 8 9 7 5 6 7 6 7 7 7 8 9 10 10 6 3 2 2 0 3 7 8 6 5 4 3 2 2 3 4 4 5 5 6 6 7 8 9 9 9 10 11 11 11 11 12 12 12 12 12 11 11 12 12 13 13 14 15 15 16 17 17 17 17 17 17 16 16
4 2 1 2 3 3 4 4 3 1 2 4 5 6 7 4 3 3 4 3 4 5 4 5 1 1 1 1 5 7 11 11 8 7 7 8 7 8 9 10 10 10 9 7 4 3 1 2 5 7 8 8 7 5 3 2 3 3 4 4 5 6 5 6 7 7 8 9 9 10 11 11 12 12 12 12 12 12 12 12 12 12 13 13 14 14 15 15 16 17 18 18 19 19 18 18 17
3 2 1 1 3 2 4 4 3 2 2 6 7 8 8 4 2 3 3 4 3 4 8 6 2 2 3 5 7 6 8 9 8 9 8 8 8 8 9 9 10 9 9 8 4 4 3 2 4 5 6 7 8 6 5 4 4 4 5 5 5 6 6 6 7 8 8 9 10 10 11 11 12 12 12 12 13 13 13 13 13 13 13 14 14 15 15 16 16 17 17 18 19 19 19 19 18
2 1 1 2 2 2 4 4 2 4 2 5 6 8 8 6 3 3 3 5 4 4 9 4 5 2 3 8 5 4 7 8 9 9 8 8 8 8 9 9 10 8 8 8 4 5 5 3 2 2 3 4 5 6 6 6 6 5 6 6 6 7 6 6 8 8 9 9 10 10 11 11 12 13 13 13 13 13 13 14 14 14 14 14 14 14 15 15 16 17 17 18 18 19 19 19 19
2 1 1 2 2 2 4 2 2 1 2 5 5 8 7 5 3 5 3 4 5 5 7 4 3 4 1 6 4 5 10 11 11 9 7 7 7 8 8 9 9 8 8 8 5 5 6 4 3 2 1 1 1 2 3 4 6 6 7 8 8 9 8 7 9 10 9 10 10 11 12 13 14 14 15 15 15 15 16 16 16 16 15 14 14 13 14 15 16 16 17 17 18 18 19 19 18
2 2 2 2 2 1 3 1 1 2 3 4 5 7 4 4 2 5 5 4 5 5 6 5 3 5 3 4 3 8 12 11 11 10 9 6 7 8 7 8 8 9 8 7 6 6 6 6 5 3 2 2 1 1 2 4 5 7 7 8 9 10 10 9 10 12 12 11 11 12 12 13 14 14 15 15 16 17 17 18 19 19 18 16 14 12 13 14 15 16 16 17 17 18 19 19 18
1 1 1 1 2 2 4 2 2 2 2 2 6 5 2 3 3 7 5 1 3 4 4 4 3 4 3 5 5 7 10 10 9 8 7 5 6 7 7 8 7 8 9 8 8 8 7 7 7 6 4 4 3 3 5 6 6 8 8 10 10 10 10 10 11 13 14 14 13 13 13 13 14 14 14 15 16 17 18 18 19 20 20 19 15 13 14 14 15 16 16 16 17 17 18 19 19
1 2 2 1 2 3 5 3 1 2 2 3 4 4 5 5 6 6 1 3 4 5 3 1 4 3 2 3 5 4 7 10 8 7 6 4 5 6 6 8 8 8 8 8 8 8 7 7 8 9 9 7 7 6 7 8 7 8 9 10 11 11 11 12 12 12 14 15 14 14 14 13 14 15 14 15 17 18 19 18 18 18 18 18 16 15 16 15 15 16 17 17 17 17 18 19 19
2 2 1 1 1 1 4 5 4 1 3 3 3 4 7 5 4 4 2 3 5 4 3 1 2 2 1 1 3 4 7 8 7 6 4 3 4 4 6 8 9 8 8 7 7 8 7 7 7 8 8 5 5 5 6 8 9 8 9 10 10 11 11 12 12 12 13 14 15 15 13 13 13 15 15 16 16 16 16 16 15 14 14 16 17 17 17 16 16 17 18 18 19 19 19 19 20
2 3 0 1 0 1 3 6 5 1 2 1 2 1 6 7 3 4 4 4 1 3 3 2 1 1 1 2 5 7 8 6 5 5 3 3 1 3 7 11 9 8 10 8 8 9 7 7 6 5 4 1 0 2 3 7 9 9 9 10 10 10 10 11 11 12 12 13 13 14 13 13 14 16 17 14 12 13 14 13 13 12 12 15 17 18 18 18 18 19 19 20 20 20 20 20 21
3 2 1 2 2 3 4 5 3 3 4 3 4 3 3 5 5 4 3 2 2 2 2 2 3 3 2 1 7 8 5 4 4 5 4 5 5 3 2 5 6 7 10 11 9 9 8 8 7 4 2 3 3 3 4 6 9 11 11 12 12 12 12 12 12 12 12 12 11 11 11 12 14 14 13 10 10 13 15 13 12 11 12 13 15 17 18 19 20 21 21 22 21 21 21 21 23
2 2 3 3 3 3 2 2 3 3 3 3 5 4 4 3 4 4 1 3 3 3 3 4 4 5 5 6 4 8 3 3 3 4 5 5 5 5 4 4 4 4 9 12 10 10 9 9 8 6 6 7 7 6 7 8 10 12 12 13 14 15 15 14 14 14 13 12 10 10 10 10 11 10 8 8 11 14 16 15 14 14 14 14 15 16 18 19 21 22 23 23 22 22 23 23 24
3 2 2 4 3 1 2 3 4 3 4 5 3 2 4 6 5 3 3 3 2 4 3 4 5 6 8 9 6 8 3 2 3 4 4 4 5 6 5 4 4 5 9 11 13 12 11 11 10 11 11 11 11 10 10 10 9 9 9 9 11 13 14 14 15 14 13 11 8 9 10 9 10 9 9 10 13 15 15 14 13 14 14 15 15 15 16 18 20 22 23 23 23 23 23 23 23
3 2 3 4 3 4 5 4 5 6 7 6 6 6 4 3 3 3 4 6 5 5 4 3 2 1 2 4 7 10 5 3 3 4 5 5 5 6 5 6 6 11 14 13 15 14 13 15 14 15 14 13 14 13 12 10 9 8 9 10 9 9 10 11 11 11 11 9 9 10 9 8 9 9 9 10 13 13 11 10 12 13 14 15 15 15 15 16 17 18 19 19 20 20 19 19 19
2 2 4 5 3 5 5 6 7 7 7 5 6 5 5 4 2 2 3 5 5 5 3 5 5 7 4 4 3 6 4 2 1 3 5 6 6 5 6 11 15 19 16 15 17 15 15 18 18 17 15 14 15 14 12 10 11 11 11 11 9 8 8 9 9 9 10 10 10 10 9 9 11 12 12 13 14 13 11 11 12 13 14 15 15 16 16 15 15 16 16 16 17 17 17 17 16
2 4 6 7 6 5 5 6 7 5 3 3 5 5 5 5 3 0 2 4 5 4 6 8 7 7 7 7 7 3 3 6 4 4 5 4 6 11 15 18 19 20 18 16 18 17 17 18 19 17 16 15 14 14 13 13 13 12 11 10 9 9 8 9 9 9 10 10 10 10 11 12 13 14 14 14 14 13 12 12 12 12 13 13 13 15 15 15 16 15 15 15 16 17 17 16 15
3 5 6 8 6 4 5 4 4 3 2 4 4 6 6 6 5 3 5 7 6 6 6 5 5 6 7 6 6 5 5 5 5 5 6 12 18 19 19 19 19 19 20 18 16 16 17 18 17 17 18 17 16 16 15 14 12 12 12 10 11 12 8 9 11 11 11 10 11 11 11 12 12 13 13 14 13 12 12 13 13 13 13 13 13 13 15 15 15 15 15 15 16 16 17 17 16
3 6 7 8 5 5 4 4 2 2 4 4 3 6 6 5 5 4 6 8 7 5 4 3 4 5 4 3 2 1 0 1 5 9 13 18 21 20 20 20 19 18 19 17 15 16 17 17 18 18 18 19 19 17 15 14 13 13 12 11 13 13 10 11 12 11 10 8 8 9 10 11 11 11 11 12 13 13 14 15 16 14 13 13 13 13 14 15 14 13 14 14 14 15 16 17 17
6 6 8 7 5 5 3 2 5 6 4 2 4 7 7 7 6 6 9 8 5 4 4 2 2 2 1 1 1 1 1 6 12 15 18 20 20 20 20 18 17 17 18 16 15 16 16 17 17 18 19 20 19 17 16 15 15 13 13 15 15 12 10 11 11 10 10 8 8 8 10 11 11 12 13 14 14 15 15 15 14 13 12 12 13 13 15 16 15 14 14 14 14 14 15 16 16
3 4 6 6 6 6 4 5 7 6 3 1 5 9 9 7 7 8 8 4 1 2 3 3 2 2 1 1 1 4 5 10 14 17 21 22 21 20 19 17 16 16 16 15 15 15 15 16 17 17 19 19 18 17 17 16 16 15 14 15 13 10 11 11 11 12 13 13 12 11 12 12 12 13 14 14 14 14 15 13 13 13 11 11 12 13 13 13 13 14 14 14 14 14 15 15 14
3 4 7 8 8 7 6 8 8 5 4 6 8 9 10 8 5 5 2 3 4 3 1 3 3 2 1 2 4 6 7 14 19 21 22 21 20 19 18 17 16 15 15 15 16 15 15 18 18 18 20 20 19 18 17 16 16 16 14 14 14 13 14 13 13 13 14 15 15 14 13 12 12 12 13 13 13 14 15 17 17 17 15 13 12 13 13 13 12 11 12 13 13 15 16 15 14
4 7 9 8 10 9 9 11 9 6 5 6 5 8 12 8 6 6 2 5 4 3 2 1 2 2 1 1 4 6 11 20 24 22 20 18 17 17 17 18 16 15 16 17 18 17 17 20 19 18 21 21 19 19 18 16 16 16 15 15 16 18 17 16 15 13 13 13 14 15 14 13 12 12 13 13 13 13 14 16 18 17 16 16 17 17 17 16 14 12 13 14 14 16 17 17 16
4 6 8 9 10 10 12 12 8 6 4 1 2 7 9 7 9 8 3 6 5 2 2 2 3 2 2 2 5 9 17 23 23 22 18 16 17 18 18 19 18 17 17 18 19 20 19 21 20 19 22 21 20 20 19 17 17 17 17 17 18 19 18 17 17 16 15 14 14 14 14 14 14 14 14 13 14 13 14 15 16 16 17 18 19 21 22 20 17 13 13 15 15 14 16 16 15
4 6 6 7 7 7 8 8 6 5 2 4 2 4 4 4 9 6 6 5 2 1 3 3 3 2 2 5 9 12 18 22 22 21 18 18 19 20 20 20 20 19 19 20 21 22 21 21 21 20 23 23 21 21 20 18 18 18 19 18 18 20 19 18 18 18 17 17 17 17 16 17 17 17 16 16 15 14 15 16 17 18 19 20 21 22 22 22 18 14 14 16 15 14 15 15 15
4 6 5 4 3 2 3 7 7 4 2 2 2 3 3 6 12 8 6 5 3 3 4 3 2 1 4 10 13 12 16 20 21 20 20 21 20 20 20 20 20 21 21 22 22 22 22 22 23 23 24 25 23 23 22 20 19 19 19 18 18 21 22 20 19 19 18 18 18 18 18 18 18 18 17 16 15 13 13 15 16 16 17 19 19 17 17 17 16 15 16 17 14 14 15 15 16
5 4 4 2 3 2 6 8 5 3 3 4 3 2 2 5 10 9 6 5 4 3 4 3 2 2 8 13 12 10 13 19 21 21 22 22 20 19 20 20 21 22 23 23 23 22 23 24 25 26 27 28 27 25 24 22 20 19 20 20 19 22 24 22 20 20 20 19 18 17 17 16 16 15 14 13 12 11 11 13 14 14 15 17 17 14 14 15 15 16 17 16 13 14 15 16 18
5 4 3 1 3 3 4 5 2 5 6 6 4 2 3 1 3 4 3 3 2 3 4 2 1 6 12 12 10 10 10 14 18 22 22 20 19 18 19 20 21 21 23 23 24 24 24 24 26 29 29 30 29 27 25 23 22 20 20 21 21 23 25 24 22 21 21 21 20 20 18 17 16 15 15 15 14 13 11 11 12 12 15 17 15 14 15 15 15 15 17 16 14 14 15 16 17
2 3 3 3 4 3 1 3 3 4 4 3 4 3 4 5 5 6 6 4 3 4 4 2 5 12 14 11 11 11 11 11 14 19 19 17 17 17 18 20 20 21 22 23 24 24 24 25 27 29 29 30 30 28 26 25 23 21 20 19 20 23 25 24 23 23 22 21 21 21 21 19 19 18 17 17 17 17 14 12 12 13 15 15 13 13 15 16 14 12 13 13 13 14 15 16 16
2 0 2 3 3 3 3 1 4 4 2 1 3 4 6 7 6 6 5 4 4 4 2 2 9 14 13 12 12 11 12 11 12 16 16 16 17 17 17 19 21 22 22 23 24 25 25 25 26 28 29 30 30 27 26 24 23 22 22 20 20 24 25 23 23 23 22 21 21 21 21 21 21 20 19 19 18 18 16 13 13 14 15 15 12 11 13 16 15 13 13 13 13 14 14 15 16
6 3 2 4 3 4 6 1 4 2 1 2 4 5 6 6 5 5 5 4 5 3 1 5 11 13 12 12 11 11 11 10 13 16 16 16 17 18 18 19 20 22 23 23 24 25 26 25 25 27 28 29 30 28 26 25 23 22 22 21 21 22 23 22 22 22 22 22 22 22 22 22 22 21 21 21 20 19 18 15 13 13 14 16 14 11 13 16 15 15 16 15 15 15 15 14 14
6 4 3 5 4 5 7 1 5 3 2 2 4 4 5 6 7 7 6 6 4 1 6 10 12 12 12 12 12 11 10 10 14 16 17 18 17 17 19 19 20 22 23 23 24 25 25 24 24 25 26 27 30 30 27 25 24 23 21 20 20 20 21 22 22 22 23 23 23 23 23 22 21 21 21 21 20 19 18 17 14 14 14 15 15 12 14 16 14 13 15 15 14 16 15 12 12
6 4 3 5 4 5 6 2 7 4 2 2 4 5 7 8 9 9 6 2 2 7 10 12 13 13 12 12 12 11 9 10 14 16 17 19 19 19 19 20 21 21 23 24 23 24 24 25 24 24 26 26 28 29 27 25 23 22 21 19 18 17 17 20 21 22 23 22 22 22 22 22 21 21 21 20 20 19 19 18 16 15 15 15 15 12 13 15 14 14 15 16 15 15 15 12 13
4 3 3 4 3 4 3 4 7 3 2 2 4 4 8 11 10 6 1 6 9 11 13 13 13 13 11 11 11 10 10 9 11 14 17 20 21 21 21 21 21 21 22 23 23 23 25 26 25 24 26 26 28 29 26 24 22 20 20 19 18 15 15 18 19 20 22 20 20 21 21 22 22 21 21 20 20 19 19 18 17 16 15 16 15 14 15 15 14 15 15 16 17 17 15 12 12
3 4 3 3 3 2 2 2 2 2 2 3 4 4 8 9 6 1 7 12 13 14 17 15 13 13 12 12 10 10 10 10 10 13 16 19 20 21 22 21 21 21 22 24 24 24 25 27 26 24 26 26 28 30 27 23 21 19 17 17 16 14 15 19 19 20 22 22 22 21 21 22 22 22 22 21 20 19 18 18 17 16 15 15 15 15 16 15 14 17 16 15 17 19 19 16 14
4 4 3 4 4 3 2 2 4 5 3 2 2 4 5 2 5 7 9 12 14 15 16 15 13 13 12 12 12 12 11 10 10 11 14 17 19 21 22 22 22 22 23 24 25 25 25 26 26 24 25 26 27 29 27 23 22 22 19 18 17 16 16 19 21 23 23 24 23 22 22 22 22 21 21 21 20 19 18 18 17 16 14 14 14 14 15 15 14 16 16 16 15 17 19 19 17
3 2 3 2 2 4 4 6 6 4 1 1 1 2 2 2 5 7 7 10 13 14 14 14 12 11 11 11 11 11 11 11 11 11 14 16 18 20 21 22 23 23 23 23 24 24 24 25 25 24 24 26 27 28 27 25 23 24 23 21 20 19 18 19 21 22 22 22 22 22 21 21 22 21 21 21 20 19 19 19 17 16 15 14 14 14 14 15 15 16 16 16 15 14 16 18 18
2 2 6 5 4 4 4 5 3 2 2 2 1 1 1 2 3 6 8 10 14 14 13 13 11 10 10 9 9 9 9 9 10 12 15 17 18 19 20 22 22 22 22 21 22 23 23 25 26 24 24 26 28 28 27 26 24 24 23 21 19 19 17 18 19 19 19 20 20 20 20 20 21 21 21 21 20 19 18 18 18 17 17 16 14 14 14 14 16 17 16 16 15 12 13 16 16
1 1 4 4 4 3 4 4 2 3 4 4 5 4 2 4 4 6 10 11 13 14 12 12 11 10 10 9 9 9 8 8 8 10 14 17 18 19 20 21 21 21 20 20 21 22 22 24 25 24 24 25 27 28 27 27 25 24 24 22 20 19 17 17 18 18 19 19 20 21 21 21 21 22 22 22 21 20 18 18 19 18 19 18 16 15 15 15 15 17 15 15 16 12 12 14 14
1 2 3 3 4 3 4 3 3 4 3 4 5 5 2 3 1 4 8 10 11 12 12 12 11 10 10 9 9 9 9 10 10 11 14 17 19 20 20 20 20 20 20 20 20 22 22 23 25 25 24 25 26 27 27 27 26 25 24 24 22 22 20 19 20 22 23 23 23 23 23 23 23 24 24 24 23 21 20 20 20 20 21 21 20 18 17 15 15 17 16 14 15 14 12 12 12
2 3 3 3 4 4 3 3 3 4 3 5 6 5 2 3 3 3 4 6 9 11 10 10 10 10 10 9 9 9 9 10 11 14 16 18 19 19 19 20 20 21 21 21 21 22 23 24 25 26 25 25 26 27 27 27 27 26 25 24 23 23 23 23 23 25 26 26 26 27 26 25 25 26 26 25 25 23 22 22 21 22 23 23 22 20 19 18 16 17 16 13 13 13 13 13 12
2 2 4 4 5 4 3 4 2 2 3 5 7 9 5 1 2 3 2 1 6 10 9 9 10 10 9 8 8 9 8 7 10 14 17 18 19 19 19 20 21 22 22 23 23 23 24 25 26 27 26 25 26 27 28 29 29 28 26 24 23 23 23 23 23 25 26 26 26 27 27 27 27 26 27 26 26 25 24 24 23 23 24 24 24 22 21 21 18 17 15 13 13 13 13 14 13
0 2 3 3 3 3 2 3 2 2 3 2 2 8 8 2 2 4 6 7 8 9 9 10 10 9 9 8 8 9 8 8 9 12 15 17 18 19 20 20 21 23 24 25 25 23 25 27 26 27 28 27 27 28 29 30 30 29 28 26 24 23 23 22 22 22 23 23 23 24 25 27 28 28 28 28 27 26 25 25 24 24 25 25 24 23 22 21 19 17 16 14 14 14 13 14 15
2 3 3 2 2 1 2 2 2 3 2 3 5 3 3 3 3 6 8 10 10 10 9 11 11 10 9 9 9 8 8 8 9 11 13 16 17 18 20 21 22 24 25 25 25 24 25 26 27 27 29 28 28 28 29 30 31 30 28 27 25 24 23 23 22 22 22 22 22 23 24 25 27 28 29 30 29 27 26 26 25 25 26 26 24 24 23 21 20 19 18 16 15 16 15 13 14
4 2 2 2 1 2 3 1 2 2 1 3 5 5 0 2 4 6 9 10 10 11 11 11 11 11 11 9 9 9 9 9 9 11 14 16 18 19 20 21 22 23 24 24 24 24 24 25 26 26 26 27 28 28 29 29 30 30 29 28 27 25 24 23 23 23 23 22 22 22 22 23 25 27 27 28 28 27 26 26 25 24 25 26 25 24 23 22 22 22 21 19 17 17 17 15 14
3 1 1 1 1 2 2 1 2 2 2 1 2 3 2 3 3 6 9 9 9 10 10 10 11 10 9 9 9 9 9 9 9 11 15 17 18 19 19 20 20 21 22 23 23 24 24 24 25 25 25 27 28 29 29 28 29 30 29 29 29 28 25 24 24 23 23 23 22 22 23 22 24 25 26 26 25 25 25 24 24 23 23 25 26 26 25 24 23 24 24 23 21 20 20 19 17
2 1 3 1 2 2 2 2 2 3 3 3 3 1 2 3 5 7 8 9 9 9 9 10 10 9 9 8 9 9 8 8 8 10 13 17 19 18 18 19 19 20 22 22 22 22 22 22 23 24 25 26 27 28 28 28 28 29 30 29 29 29 27 26 26 25 24 24 24 24 24 23 24 25 25 25 25 25 25 24 24 23 22 23 25 26 27 26 25 26 26 26 24 24 24 24 22
1 1 1 2 3 2 1 3 3 2 4 3 3 2 3 4 4 6 8 8 9 8 9 9 9 9 9 8 8 8 8 8 8 9 13 16 18 18 18 19 19 20 21 21 21 20 21 21 22 23 24 25 26 26 26 27 27 28 29 29 29 29 28 28 27 26 26 26 25 25 25 24 24 25 25 25 26 25 25 24 24 24 22 22 22 24 26 26 26 27 27 27 27 25 25 26 26
0 0 1 2 2 1 1 1 2 2 4 4 3 2 3 4 2 5 8 7 8 7 8 9 8 9 8 8 8 8 8 7 8 11 15 16 17 18 19 19 20 19 19 19 19 18 19 19 20 21 21 22 23 23 24 25 25 26 26 27 28 28 28 28 27 27 27 27 27 27 26 25 25 24 23 23 24 25 25 25 25 25 23 21 21 22 25 26 26 26 27 28 27 26 26 26 26
1 1 1 1 0 1 1 1 0 2 4 4 3 4 3 2 3 6 6 6 7 7 7 8 8 8 7 7 8 8 8 7 7 10 13 15 17 18 19 19 18 17 16 16 16 16 17 17 18 18 18 19 20 21 22 23 24 25 24 25 26 26 27 27 27 27 28 28 28 28 27 26 25 24 23 22 22 23 24 25 25 25 24 22 21 21 22 26 27 26 26 27 27 27 28 27 26
2 2 1 2 2 1 1 0 1 1 4 4 4 4 2 1 2 5 6 5 6 6 6 7 7 8 7 7 7 7 7 7 7 8 12 15 16 17 17 16 16 15 14 14 14 14 15 15 16 17 17 18 19 21 21 21 22 24 24 25 26 26 26 26 27 28 28 28 27 27 27 26 26 26 24 23 22 22 22 24 24 24 24 22 22 20 20 24 27 26 25 26 26 28 29 29 27
1 0 1 2 1 1 1 0 1 2 4 3 4 5 1 2 3 5 7 6 6 6 6 6 6 7 7 7 7 6 7 6 7 9 12 14 15 15 14 13 13 13 13 12 12 13 13 14 14 15 16 17 19 19 19 19 20 21 23 24 24 25 26 26 26 27 28 28 28 27 26 25 26 26 24 24 23 21 21 22 23 24 24 22 21 20 19 21 25 26 25 25 25 26 28 29 28
1 1 2 0 0 1 1 3 3 3 3 2 3 6 1 2 2 5 7 6 6 6 7 7 6 7 7 7 7 7 7 7 8 11 12 12 12 12 12 12 12 12 12 12 12 12 13 13 13 13 14 15 16 17 17 18 18 19 20 22 22 24 25 26 26 27 28 28 28 28 27 26 26 25 24 23 23 22 20 20 21 23 23 22 20 20 19 18 21 23 24 25 25 26 27 28 28
Wind_Direction
55 10 337 311 284 154 138 144 166 181 268 262 264 270 2 21 302 199 110 95 95 42 45 56 61 90 65 131 67 29 41 61 83 73 167 152 92 59 37 34 71 87 93 101 76 133 152 152 151 141 140 144 145 143 150 160 148 158 169 177 276 278 284 292 292 287 283 282 282 285 287 289 289 289 290 291 294 297 297 299 301 304 304 303 303 306 306 300 299 299 299 300 298 294 289 287 286
71 330 288 257 231 207 151 191 170 166 216 245 257 308 330 115 245 217 106 81 100 66 38 29 27 62 51 149 190 89 60 59 94 96 103 137 106 48 41 37 57 82 91 95 80 110 123 137 158 157 148 147 152 152 161 172 181 194 230 240 289 289 295 299 299 299 298 296 292 290 288 289 289 289 289 290 292 295 296 297 298 300 301 300 299 299 298 292 292 294 294 295 296 295 288 282 279
226 259 261 209 227 241 170 200 226 190 200 231 255 321 333 16 292 271 98 78 88 86 51 65 71 77 242 194 216 165 89 55 81 106 90 89 78 30 34 40 51 77 87 96 92 109 118 96 132 173 165 158 157 160 182 184 219 242 275 283 284 288 295 297 300 300 299 299 295 294 292 290 287 288 289 290 291 293 294 295 294 295 295 294 294 295 295 293 292 292 294 293 292 293 291 285 277
237 244 268 222 185 277 196 204 230 202 209 216 243 229 7 35 269 317 86 73 73 77 47 130 137 123 241 195 206 94 77 37 53 72 93 49 42 34 33 45 58 75 80 90 98 119 141 83 55 178 174 175 174 166 189 211 244 267 286 291 291 289 290 292 298 296 295 296 296 295 293 292 290 288 288 290 293 294 294 293 291 289 290 290 291 292 292 293 292 291 293 290 289 290 290 286 278
260 268 275 255 176 254 220 208 234 214 223 145 49 206 93 162 245 226 106 114 100 87 68 183 116 133 251 15 11 61 28 315 58 51 81 58 42 55 44 52 64 78 79 84 102 120 119 73 33 164 172 177 188 191 208 237 259 272 283 293 298 295 294 296 299 298 298 296 295 296 295 296 296 294 292 294 294 295 296 297 296 292 290 288 287 288 289 290 290 291 291 289 287 286 286 285 279
320 317 276 263 199 185 236 223 229 216 196 128 153 174 141 173 253 294 120 113 97 93 199 95 43 33 126 76 57 59 13 336 74 48 64 62 47 59 53 63 70 77 81 81 93 109 102 57 124 157 164 171 187 206 228 254 267 274 281 289 300 303 304 304 305 305 304 302 297 297 297 298 299 298 297 299 298 299 301 304 304 300 295 289 286 285 286 288 289 290 289 289 288 286 285 284 280
307 321 275 259 200 188 240 227 221 226 257 142 176 148 134 152 159 223 147 105 103 146 196 105 13 337 100 108 78 60 45 52 80 59 65 71 62 58 58 74 76 72 80 78 56 64 77 195 162 163 169 175 179 192 218 252 257 272 286 290 296 298 304 304 305 306 307 307 303 300 299 298 298 297 297 299 299 301 302 303 303 299 293 290 289 286 287 288 290 289 289 289 288 288 286 283 281
240 274 98 271 236 197 240 239 220 189 193 182 172 132 112 109 120 164 129 111 150 146 138 118 178 217 127 120 95 71 60 69 82 74 70 73 71 67 65 74 78 73 77 71 30 39 58 183 163 168 174 181 186 187 196 224 232 237 256 267 278 282 291 294 298 301 302 303 300 298 299 299 298 297 297 298 297 298 299 298 298 295 291 291 292 291 292 292 292 292 291 290 289 289 288 285 284
223 246 127 245 257 214 237 235 212 128 171 194 163 130 118 107 65 60 68 81 102 83 81 86 280 247 127 102 98 81 65 79 86 75 71 72 73 74 73 75 78 78 80 78 39 29 52 147 150 165 177 186 195 198 203 218 230 233 243 250 260 270 282 288 290 293 294 294 293 294 297 297 296 295 293 293 292 292 294 294 294 293 291 292 293 294 295 295 296 297 294 294 293 290 289 289 288
206 238 235 248 251 232 243 235 217 144 176 232 151 128 121 121 115 81 48 65 52 38 66 45 282 300 128 110 92 82 74 86 85 70 71 70 72 73 73 76 79 81 82 89 66 18 47 83 104 135 164 181 196 206 216 229 244 253 264 265 267 270 271 283 291 291 292 292 292 292 292 293 293 295 293 292 290 289 291 292 289 287 286 288 291 294 295 296 297 297 295 294 295 294 292 291 290
204 198 237 256 229 224 250 247 299 133 182 257 137 120 107 104 131 111 87 76 59 46 53 352 313 355 33 100 83 106 87 79 74 69 80 74 78 81 74 75 77 77 71 80 77 35 46 62 72 80 102 133 176 217 238 255 270 277 285 290 291 291 284 285 289 287 286 288 289 291 293 295 296 297 297 297 295 292 292 290 286 283 282 282 285 292 295 297 298 297 296 294 294 296 295 293 293
234 199 196 254 253 226 266 264 319 338 302 274 103 97 106 116 165 109 77 65 73 69 44 2 5 333 329 93 106 108 88 77 75 71 82 82 81 82 80 80 78 78 75 77 71 53 45 42 59 69 47 41 3 330 314 307 306 303 302 303 301 302 298 287 284 282 281 281 281 284 289 294 296 297 298 298 297 295 294 292 288 282 279 277 279 288 292 295 298 298 298 297 295 294 293 292 292
276 294 241 251 315 297 281 300 162 201 299 332 80 72 75 95 80 83 81 119 134 108 59 5 344 319 344 95 116 100 82 80 81 73 76 90 91 85 92 90 83 78 76 76 66 61 53 35 43 49 40 17 351 350 340 328 319 314 312 312 309 305 303 295 291 289 287 286 281 279 281 285 290 293 296 298 299 297 296 297 292 282 273 269 273 283 288 291 296 298 298 298 297 294 292 289 288
256 305 286 271 359 328 295 303 224 183 114 105 99 79 60 59 67 78 131 183 122 103 103 359 353 9 1 105 114 95 84 79 76 73 63 89 108 95 100 107 100 90 82 79 75 72 66 50 35 37 40 24 12 9 348 333 328 328 322 317 314 309 307 304 302 299 298 298 292 288 284 284 287 288 292 293 293 295 294 295 294 283 269 263 269 280 284 286 290 293 294 295 297 296 294 292 289
222 286 300 315 27 329 299 281 258 154 101 88 86 101 95 88 86 96 62 35 86 100 119 131 21 37 349 33 103 90 86 74 61 66 59 96 136 128 120 130 117 97 103 96 86 85 78 75 54 46 51 40 28 14 343 328 331 341 334 326 324 320 318 313 310 307 305 304 302 299 289 283 287 289 290 291 292 297 298 295 294 285 269 264 272 279 280 282 284 286 289 292 295 297 296 295 294
207 279 195 243 261 224 268 252 247 124 112 82 76 125 120 119 107 85 70 9 4 132 128 152 130 122 296 29 98 98 83 69 44 36 41 63 87 161 147 148 132 102 109 98 82 84 77 81 72 63 67 50 7 344 328 314 322 333 331 327 326 325 326 324 322 317 310 305 305 305 294 284 286 288 290 296 302 303 300 297 296 291 278 274 277 280 281 281 282 282 285 289 292 293 294 294 293
198 261 245 239 241 234 249 237 243 112 129 139 100 29 50 126 119 86 118 232 262 136 148 191 152 131 269 329 97 103 86 74 49 14 23 35 14 28 104 127 111 107 112 98 86 78 61 62 58 45 2 326 322 345 340 318 322 327 327 326 325 326 325 325 326 325 320 313 312 310 302 293 293 294 295 309 314 305 301 296 294 292 287 283 281 280 279 279 279 280 282 286 288 289 290 290 289
200 229 232 241 225 211 270 325 24 78 87 63 78 42 20 49 71 76 194 216 215 221 203 195 178 160 227 257 120 113 109 90 58 13 20 19 2 360 352 4 31 72 90 84 78 72 56 46 38 12 342 341 338 342 337 330 337 335 334 333 330 331 331 329 326 327 326 328 332 323 317 309 307 316 321 314 300 293 294 295 295 295 292 288 285 281 279 278 278 280 282 284 285 286 287 287 287
229 248 243 258 252 241 323 353 21 32 22 10 37 59 49 22 5 25 336 311 312 279 247 207 206 184 206 227 162 127 113 43 18 7 3 352 343 330 326 333 335 41 57 59 61 60 49 36 23 2 355 350 336 334 337 342 345 332 327 327 325 328 330 331 331 334 333 333 329 312 311 313 316 326 323 305 292 291 294 297 299 298 298 296 294 289 285 283 282 283 283 284 284 284 285 286 288
228 246 250 255 284 335 339 16 31 31 26 351 352 15 17 345 335 14 348 324 316 281 270 247 251 351 182 199 148 139 126 69 357 344 337 325 321 306 307 331 0 47 54 55 53 44 32 26 13 5 6 354 343 344 343 342 335 323 328 333 328 321 322 325 325 329 327 320 310 304 309 304 299 293 283 285 288 295 298 297 301 303 305 305 302 298 293 291 290 289 286 286 286 284 285 288 292
217 225 255 268 326 338 340 38 51 42 35 354 340 343 321 325 7 44 330 315 292 256 311 6 360 1 9 7 61 137 138 68 322 321 309 287 289 308 353 16 29 44 49 49 44 29 19 19 14 13 10 360 0 357 349 350 349 348 350 343 330 319 321 322 317 316 314 311 306 304 305 298 295 290 281 284 286 292 294 292 300 304 305 304 303 303 302 301 299 296 295 295 294 293 292 293 293
246 247 259 275 305 319 325 26 68 66 29 319 311 302 311 341 343 309 284 283 281 294 353 13 3 353 351 342 346 356 357 359 3 331 304 318 20 29 29 29 30 37 41 41 36 23 12 16 17 15 10 5 8 5 5 10 4 359 355 346 338 331 329 330 327 324 320 316 314 310 308 307 307 306 303 305 307 309 307 301 298 297 297 299 301 302 303 301 297 295 295 294 292 291 289 288 288
252 255 252 263 278 292 306 4 90 107 310 284 299 312 323 326 307 293 276 264 271 310 344 4 346 327 324 324 337 6 12 351 347 340 356 36 42 38 35 35 33 36 42 40 32 19 9 14 17 14 10 6 10 14 17 14 6 5 0 360 358 353 355 350 346 342 333 329 329 322 313 312 308 306 307 311 316 314 311 306 302 300 299 298 299 300 301 298 295 294 291 290 289 286 282 279 279
248 274 279 276 278 280 303 356 348 302 302 302 317 314 306 290 287 277 266 268 272 294 307 295 289 289 290 304 343 46 347 331 22 34 49 53 47 46 45 42 38 38 40 35 28 19 14 16 16 15 11 9 15 16 14 10 9 8 1 7 7 2 5 2 360 353 342 334 330 319 307 306 305 308 309 308 310 310 309 307 304 304 303 301 296 297 303 303 301 297 293 292 290 289 288 285 282
238 260 275 279 284 291 321 335 280 273 275 309 301 279 271 258 267 270 263 268 277 304 316 305 291 302 304 280 250 161 84 60 51 48 59 62 57 55 51 44 42 41 39 34 29 24 19 18 18 18 13 12 16 14 12 12 7 5 9 12 5 358 359 358 356 347 340 333 326 326 321 315 311 312 312 308 308 308 306 306 308 307 307 310 307 307 310 309 305 299 295 294 292 292 294 295 293
256 266 276 288 292 288 289 265 257 264 265 268 264 261 263 256 257 267 263 262 39 38 345 353 346 290 259 265 40 65 65 68 61 54 58 59 56 54 47 42 46 45 42 36 29 26 21 20 23 21 17 16 16 15 16 15 7 8 21 14 352 350 359 351 344 339 339 339 333 331 330 326 320 314 311 309 309 308 305 309 320 318 310 319 323 317 309 305 303 299 296 296 295 293 293 296 298
358 301 285 296 295 283 275 274 271 280 277 250 253 264 266 257 248 258 226 123 101 87 30 2 336 305 325 22 72 81 74 70 65 60 55 50 48 49 43 38 41 43 41 34 28 26 22 22 26 22 19 19 17 17 18 18 12 9 20 14 355 2 7 358 353 347 343 344 342 338 334 331 325 317 316 316 314 312 311 311 315 314 308 307 312 305 298 300 301 298 296 296 294 293 291 289 289
325 300 290 293 284 272 259 255 251 244 244 246 263 279 271 255 237 241 172 102 96 79 31 339 288 287 335 52 106 96 70 67 66 63 58 51 48 47 43 35 34 38 35 30 25 26 24 23 26 21 19 20 18 18 18 18 12 6 14 16 8 11 11 5 3 359 353 347 341 341 341 339 334 330 330 331 327 321 318 312 309 310 304 294 290 293 297 302 302 299 300 300 295 295 293 290 291
318 300 289 284 274 263 248 238 223 208 206 86 359 283 269 223 206 214 146 86 72 56 304 267 258 239 191 123 100 78 67 67 64 61 59 57 52 46 42 34 31 32 29 26 25 27 24 23 25 20 19 22 20 18 19 18 12 9 15 17 15 16 12 6 2 359 357 352 345 343 344 343 342 341 337 334 335 333 327 321 316 315 308 296 286 285 289 294 298 299 305 303 294 295 296 294 295
300 278 264 273 278 267 242 213 161 159 146 75 64 284 294 150 148 132 109 105 67 285 264 265 278 267 152 87 76 69 65 65 63 60 55 54 50 43 39 33 31 31 27 25 26 27 24 23 23 20 19 22 22 20 21 20 15 15 18 18 16 14 12 6 1 358 353 352 350 347 344 343 343 341 337 334 334 335 331 326 322 318 311 301 290 287 287 290 291 291 302 304 293 290 292 292 294
258 262 253 250 268 269 143 136 141 155 141 111 162 263 311 101 115 115 127 158 199 237 249 257 264 293 91 84 79 75 68 66 66 62 54 50 46 40 37 32 31 31 28 26 26 26 25 24 23 20 20 21 22 22 22 21 16 14 15 17 13 10 10 8 6 4 359 355 351 347 343 341 340 338 335 333 331 332 335 332 326 322 317 307 299 299 300 298 291 287 298 304 296 289 290 290 291
229 243 262 217 213 221 118 124 149 151 144 164 182 269 285 109 130 152 168 191 216 241 262 266 257 72 85 88 86 84 76 68 64 57 51 48 44 40 37 33 31 30 28 27 25 26 25 24 22 21 20 19 21 23 23 21 18 15 12 13 12 8 7 7 7 5 1 359 358 353 347 343 342 340 338 337 337 337 342 342 334 327 321 311 307 311 310 304 297 291 295 300 300 295 294 296 293
216 203 263 259 225 251 130 133 130 118 139 166 189 266 298 22 148 195 238 266 262 263 269 281 359 75 85 91 88 83 77 66 56 49 47 46 43 42 38 34 33 31 30 28 28 27 26 25 23 21 20 19 19 22 23 20 19 20 15 12 10 5 3 4 5 2 357 355 357 354 351 351 350 347 345 343 344 341 340 342 334 320 313 309 315 323 315 308 304 296 294 293 296 296 290 293 297
210 187 236 261 249 275 223 165 155 153 159 180 203 225 264 279 281 278 285 293 282 277 287 335 69 84 89 89 82 74 68 59 51 46 44 44 43 43 41 38 36 34 33 32 31 30 29 27 24 23 22 20 20 21 21 19 17 19 16 12 8 2 2 2 1 358 354 351 352 350 347 349 349 346 344 342 341 337 333 333 330 323 318 316 323 330 324 315 311 307 300 293 293 294 290 288 291
346 248 242 285 300 311 299 177 157 176 159 185 239 252 267 270 275 280 290 308 297 296 314 68 87 92 93 87 80 73 68 63 54 50 47 46 44 43 43 41 39 37 36 35 34 33 32 29 26 25 23 20 21 22 20 17 15 16 14 11 6 0 1 2 359 357 356 353 353 350 347 347 346 343 341 341 340 337 334 333 336 339 334 329 326 328 332 323 314 312 307 300 291 285 286 287 287
331 336 324 302 314 299 292 296 144 162 121 215 259 272 277 284 285 285 291 294 286 282 94 92 87 88 87 82 80 77 75 73 65 58 52 49 47 45 44 43 42 39 38 38 36 35 33 30 27 25 22 18 18 20 19 15 11 11 9 8 6 358 355 358 358 359 359 357 355 352 349 348 345 340 338 339 339 337 335 333 337 343 341 336 329 328 339 330 320 319 315 310 303 296 293 291 291
325 325 310 286 291 281 281 267 116 84 50 267 292 291 286 290 281 278 275 271 271 104 88 83 83 86 85 83 85 85 86 89 80 68 58 52 49 47 45 43 42 40 39 38 37 36 33 31 28 25 22 18 17 18 18 14 9 6 3 3 4 358 355 358 357 356 357 356 354 352 350 348 346 341 339 339 340 337 334 332 334 338 341 341 333 333 342 335 325 325 323 318 314 313 309 300 301
311 295 288 285 279 272 282 114 119 99 82 283 306 300 288 282 272 271 268 275 67 85 85 84 84 86 91 93 94 92 90 91 83 72 62 54 48 46 45 43 41 40 38 37 37 36 32 31 30 27 24 20 18 17 19 16 9 6 3 0 1 2 4 6 1 354 353 353 353 352 350 349 349 346 343 341 340 339 338 338 338 340 343 342 337 340 346 341 334 332 331 328 324 322 316 308 319
288 275 268 271 261 275 306 115 137 130 115 269 305 302 280 270 265 266 177 90 78 75 76 79 80 81 86 91 93 92 87 80 72 66 60 54 47 44 43 41 40 39 39 37 36 35 33 31 31 28 24 21 18 18 21 17 9 9 10 7 7 11 10 5 1 354 352 355 357 356 351 349 351 350 348 345 342 342 343 342 342 343 343 343 342 345 348 346 346 344 337 336 335 333 326 315 328
246 241 242 267 286 324 340 140 153 337 320 280 290 275 270 263 244 147 90 93 88 80 77 76 76 78 77 74 75 77 77 71 62 57 52 51 47 43 42 40 39 38 37 36 35 35 33 31 31 28 23 22 19 19 22 19 11 10 13 8 5 9 2 353 353 353 355 358 358 358 355 352 353 353 351 349 347 348 348 344 342 342 344 346 346 348 349 344 347 350 343 341 342 339 334 322 319
244 233 238 259 285 332 335 344 342 330 330 339 309 268 274 243 141 119 101 105 101 92 88 85 83 85 83 79 75 70 68 63 59 54 47 48 47 43 41 39 38 37 36 36 36 36 34 31 30 27 23 21 19 18 21 22 17 14 17 14 8 7 3 358 357 356 357 358 357 358 358 356 355 354 353 353 352 354 355 351 346 344 345 348 351 352 349 342 343 349 346 345 345 340 335 326 319
259 284 342 332 346 3 344 342 342 321 310 347 342 312 303 74 127 139 127 120 111 99 94 89 84 82 79 78 77 74 71 64 62 60 53 50 49 46 43 40 37 36 35 37 37 36 34 31 30 28 25 22 20 20 22 26 25 21 23 22 17 14 11 10 8 2 0 359 357 358 360 360 358 358 357 358 357 357 1 0 356 354 352 352 356 355 350 348 349 350 350 348 343 340 340 334 328
258 331 10 23 24 4 326 326 336 296 287 251 201 137 206 283 239 168 137 124 114 99 90 88 83 78 75 73 73 71 72 70 67 64 59 54 51 49 46 42 39 36 35 37 36 35 33 30 30 30 26 23 22 21 22 26 29 27 27 26 23 20 13 10 8 4 2 360 358 0 2 2 1 1 1 2 1 360 2 5 4 4 2 358 357 356 354 357 357 352 351 352 343 341 350 346 340
256 324 8 7 346 328 301 308 278 254 288 259 215 186 215 276 257 161 138 133 116 97 90 88 83 82 82 80 79 76 74 75 71 65 60 55 53 52 49 45 42 38 35 36 35 33 32 31 31 32 29 26 24 23 22 25 28 29 28 26 25 22 16 9 5 4 4 1 1 2 3 2 1 3 4 5 6 5 5 7 8 10 10 6 3 1 359 1 3 356 351 353 348 347 357 353 345
79 15 3 349 319 297 284 286 265 261 286 269 226 178 187 255 238 134 143 144 118 99 94 90 85 83 83 82 84 82 77 71 66 66 63 58 54 53 52 48 43 38 34 35 35 32 33 33 32 33 32 28 27 26 26 27 29 29 29 26 22 20 17 12 7 6 6 4 3 3 3 2 1 2 4 6 7 8 11 11 12 14 13 11 8 6 3 2 8 2 353 356 358 355 0 359 353
54 355 327 310 273 258 262 248 258 272 254 255 232 168 162 236 186 156 167 154 122 108 97 91 88 83 79 79 80 77 73 69 63 63 61 57 55 52 51 48 42 38 34 35 35 33 33 33 32 33 32 30 29 30 31 32 33 33 31 28 23 20 17 15 13 12 12 11 9 9 10 8 7 6 7 9 8 9 12 13 14 16 15 12 9 7 5 2 7 5 355 357 5 5 7 6 1
29 316 281 270 244 212 220 222 230 283 251 254 227 181 170 222 151 111 47 40 109 116 108 97 92 84 80 77 73 70 67 66 61 58 56 54 52 49 47 44 39 37 35 35 34 32 33 33 33 34 33 32 30 31 32 34 37 36 34 31 26 22 20 17 17 15 14 14 13 13 14 15 16 15 13 15 13 12 13 13 14 15 15 13 10 10 9 4 5 4 356 359 10 14 17 14 7
105 263 269 282 246 174 193 212 177 232 246 299 240 176 172 179 49 61 50 32 59 96 107 103 96 89 85 76 70 70 64 60 56 53 51 47 45 41 40 40 37 35 34 34 32 31 33 33 34 35 33 32 31 31 33 35 37 38 35 33 28 25 22 20 18 15 13 12 10 10 12 14 17 18 18 19 18 18 17 16 16 16 16 14 13 12 11 7 7 6 2 6 14 14 18 22 17
196 239 245 262 264 189 214 204 185 214 205 28 32 76 149 135 61 56 67 56 53 70 86 97 98 91 86 77 70 68 62 58 54 49 47 43 40 37 36 36 35 34 33 32 31 32 33 33 33 34 32 31 32 33 36 36 36 37 36 34 31 27 25 22 20 17 14 11 9 10 10 11 13 15 17 18 19 21 23 21 20 21 20 17 16 16 15 14 16 16 13 12 15 16 17 22 22
192 223 231 243 283 285 265 249 242 237 111 63 54 53 220 161 79 60 73 72 67 72 76 82 87 85 81 76 71 66 62 59 53 48 46 42 39 37 36 34 35 35 33 33 33 33 34 33 33 34 32 32 34 36 37 37 35 35 36 35 33 31 28 25 22 18 15 14 12 11 10 9 12 14 15 16 18 21 24 25 24 25 24 20 20 22 22 22 24 25 23 20 21 22 21 23 25
214 228 46 24 344 250 253 320 321 305 347 349 97 78 255 193 115 85 82 79 72 74 78 78 77 78 78 76 72 65 61 58 53 51 48 44 42 41 39 36 37 38 36 35 35 34 34 33 33 34 32 31 35 36 36 37 37 36 38 37 36 36 32 28 25 21 18 17 14 14 14 11 12 14 15 17 20 22 24 26 26 26 26 21 20 24 26 25 27 28 27 27 29 30 28 29 31
284 359 67 53 278 277 274 314 311 285 296 275 189 115 36 91 110 107 92 80 74 69 73 77 74 73 71 68 66 62 61 57 50 50 49 48 46 44 41 39 40 41 39 38 36 35 35 34 33 34 34 34 36 38 38 38 39 38 39 39 38 38 36 32 30 26 25 24 20 20 20 16 15 16 16 18 20 22 22 24 25 25 27 24 19 21 26 26 27 29 27 27 29 32 32 32 33
331 347 64 248 267 335 331 299 303 266 273 266 201 158 93 101 115 119 106 87 78 68 64 68 68 69 67 62 61 59 60 58 52 50 49 49 47 43 43 43 43 43 42 41 38 37 37 36 35 35 36 37 38 39 39 38 40 39 38 38 37 37 35 33 30 28 26 26 24 23 21 19 18 17 17 19 20 21 22 24 25 23 26 28 21 18 23 26 28 29 28 27 27 29 32 32 32
84 217 329 302 298 39 112 281 334 278 261 255 227 228 183 180 176 136 124 102 89 77 66 63 58 61 63 62 61 57 58 58 57 54 49 48 46 42 41 43 44 44 43 42 40 40 40 39 39 38 37 38 39 40 40 38 38 37 34 34 34 32 31 30 27 25 24 22 22 22 20 18 18 17 17 19 20 21 21 23 24 23 23 27 25 18 18 23 28 28 27 26 25 26 31 32 30
315 241 193 135 12 315 238 173 309 266 265 267 263 269 246 189 156 140 131 110 105 93 75 67 60 58 57 59 59 55 55 50 48 50 47 46 45 41 40 41 42 43 43 42 41 41 43 41 41 41 39 39 39 40 40 37 37 36 33 31 31 29 28 27 24 22 23 21 19 19 18 15 16 15 15 17 18 20 21 22 23 23 22 25 26 22 15 16 23 26 24 23 21 23 28 30 29
346 342 262 164 158 232 226 141 27 276 275 282 282 273 264 47 81 119 107 84 93 93 83 74 66 64 56 53 54 48 49 45 41 45 43 43 43 40 39 38 39 41 41 41 42 41 42 40 39 39 38 39 39 39 38 36 35 35 33 30 29 27 25 23 22 20 20 18 16 15 13 12 14 13 12 13 15 16 18 20 21 22 22 22 25 26 17 11 17 23 22 20 19 20 24 26 26
110 80 219 189 168 172 135 166 162 213 264 278 295 282 218 72 47 96 95 75 73 81 88 83 70 69 61 53 53 48 46 46 44 43 38 36 36 35 37 38 38 39 39 40 41 40 40 39 37 37 34 35 36 35 34 34 32 29 28 28 26 24 22 21 19 17 17 15 13 12 10 9 11 11 9 10 11 11 13 15 18 20 21 20 21 26 22 11 11 18 21 18 18 19 21 22 22
77 171 193 166 231 187 300 270 196 186 232 213 264 276 246 93 52 89 91 76 68 69 85 91 77 72 66 56 56 51 47 46 42 41 37 32 31 30 32 34 34 35 35 35 37 36 36 35 34 34 33 31 32 31 29 29 28 24 23 23 22 20 18 17 16 14 13 12 10 9 7 6 7 6 6 8 7 7 8 9 13 17 19 19 19 21 23 15 9 15 19 18 18 18 17 18 19